Location: �quirre
(50.4736°N, 2.2351°E)
Time: 02:40:09
(UTC+00:00)

Cosmos 2098 Rocket - Pass Details

Date: 07 August 2020
Orbit: 367 x 1184 km, 82.9° (Epoch: 25 September)

Event Time Altitude Azimuth Distance (km) Brightness Sun altitude
Rises 02:47:37 0° 346° (NNW) 2,869 7.0 -13.4°
Reaches altitude 10° 02:49:38 10° 343° (NNW) 2,071 6.2 -13.2°
Maximum altitude 02:54:12 60° 264° (W) 881 3.6 -12.7°
Drops below altitude 10° 02:59:56 10° 186° (S) 2,591 5.8 -12.1°
Enters shadow 03:00:39 - 185° (S) 2,867 6.0 -12.0°
